Regional Weather Roundup
Issued by NWS

Home | Current Version | Previous Version | Text Only | Print | Product List | Glossary Off
Versions: 1 2 3 4 5 6 7 8 9 10 11 12 13 14 15 16 17 18 19 20 21 22 23 24 25 26 27 28 29 30 31 32 33 34 35 36 37 38 39 40 41 42 43 44 45 46 47 48 49 50

000
ASUS45 KBOI 251910
RWRID

IDAHO REGIONAL WEATHER ROUNDUP
NATIONAL WEATHER SERVICE BOISE ID
100 PM MDT SAT MAR 25 2017

NOTE: "FAIR" INDICATES FEW OR NO CLOUDS BELOW 12000 FEET
WITH NO SIGNIFICANT WEATHER AND/OR OBSTRUCTIONS TO VISIBILITY

IDZ012-014-252000-
SOUTHWEST IDAHO


CITY           SKY/WX    TMP DP  RH WIND       PRES   REMARKS
BOISE          SUNNY     52  36  54 NW7       30.06F
CALDWELL       SUNNY     53  36  52 NW5       30.08F
MOUNTAIN HOME  SUNNY     53  34  47 NW10      30.06F
$$

IDZ016-017-252000-
SOUTHCENTRAL IDAHO


CITY           SKY/WX    TMP DP  RH WIND       PRES   REMARKS
BURLEY         PTSUNNY   48  35  60 W13G21    30.02F
JEROME         CLOUDY    48  36  63 W17       30.04F
TWIN FALLS     CLOUDY    48  33  56 W20       30.05F
$$

IDZ019>023-252000-
SOUTHEAST IDAHO


CITY           SKY/WX    TMP DP  RH WIND       PRES   REMARKS
IDAHO FALLS    CLOUDY    44  36  73 SW14      30.01F
POCATELLO      CLOUDY    45  37  73 SW17      30.03F
REXBURG        CLOUDY    42  33  70 SW9       30.00F
$$

IDZ006-010-011-018-031-032-252000-
CENTRAL IDAHO MOUNTAINS


CITY           SKY/WX    TMP DP  RH WIND       PRES   REMARKS
MCCALL         CLOUDY    38  29  70 SE6       30.01F WCI  33
HAILEY         PTSUNNY   45  28  53 W7        30.02F
STANLEY          N/A     37  22  54 N6        30.03F WCI  32
SALMON         CLOUDY    46  28  49 NW7       30.00F
CHALLIS        PTSUNNY   46  24  42 S6        29.99F
$$

IDZ002-004-006-007-026-252000-
NORTHERN IDAHO


CITY           SKY/WX    TMP DP  RH WIND       PRES   REMARKS
LEWISTON       PTSUNNY   50  40  68 NW6       30.06F
LOWELL           N/A     48  39  71 CALM      30.06F
COEUR D`ALENE  PTSUNNY   46  33  60 SW20      30.02F
MULLAN PASS    LGT SNOW  30  29  96 VRB3      29.96F FOG
$$



USA.gov is the U.S. government's official web portal to all federal, state and local government web resources and services.